• In Portugal
  • List of Countries
  • For 7 days
  • Water Temperature
  • Satellite Maps
  • Weather Map
  • Weather Widgets
  • user-avatar
    Login

    Hourly Weather Mayrhofen

    Today, 24 September, Monday

    Time Temperature Precipitation Wind Pressure Humidity
    00:00 +9°C° 2.4 mm 3 mps 618 mmHg 96%
    01:00 +8°C° 2.4 mm 3 mps 618 mmHg 97%
    02:00 +7°C° 1 mm 3 mps 619 mmHg 97%
    03:00 +5°C° 1 mm 4 mps 619 mmHg 96%
    04:00 +4°C° 1 mm 4 mps 619 mmHg 96%
    05:00 +3°C° 0.5 mm 4 mps 619 mmHg 95%
    06:00 +3°C° 0.5 mm 3 mps 620 mmHg 95%
    07:00 +2°C° 0.5 mm 3 mps 620 mmHg 94%
    08:00 +2°C° 0.1 mm 3 mps 621 mmHg 90%
    09:00 +2°C° 0.1 mm 3 mps 622 mmHg 86%
    10:00 +2°C° 0.1 mm 3 mps 622 mmHg 82%
    11:00 +3°C° 0.1 mm 3 mps 623 mmHg 77%
    12:00 +4°C° 0.1 mm 3 mps 623 mmHg 73%
    13:00 +4°C° 0.1 mm 3 mps 624 mmHg 68%
    14:00 +4°C° 0 mm 3 mps 624 mmHg 66%
    15:00 +4°C° 0 mm 3 mps 624 mmHg 64%
    16:00 +4°C° 0 mm 3 mps 624 mmHg 63%
    17:00 +2°C° 0 mm 3 mps 624 mmHg 71%
    18:00 +2°C° 0 mm 2 mps 624 mmHg 79%
    19:00 -1°C° 0 mm 2 mps 624 mmHg 86%
    20:00 -1°C° 0 mm 2 mps 624 mmHg 87%
    21:00 -2°C° 0 mm 2 mps 624 mmHg 87%
    22:00 -2°C° 0 mm 2 mps 625 mmHg 88%
    23:00 -2°C° 0 mm 2 mps 625 mmHg 88%

    Tomorrow, 25 September, Tuesday

    Time Temperature Precipitation Wind Pressure Humidity
    00:00 -3°C° 0 mm 2 mps 624 mmHg 89%
    01:00 -3°C° 0 mm 2 mps 624 mmHg 89%
    02:00 -3°C° 0 mm 2 mps 624 mmHg 88%
    03:00 -1°C° 0 mm 1 mps 624 mmHg 87%
    04:00 -2°C° 0 mm 1 mps 624 mmHg 86%
    05:00 -1°C° 0 mm 1 mps 625 mmHg 82%
    06:00 -1°C° 0 mm 1 mps 625 mmHg 78%
    07:00 0°C° 0 mm 1 mps 625 mmHg 75%
    08:00 +1°C° 0 mm 2 mps 626 mmHg 64%
    09:00 +4°C° 0 mm 2 mps 627 mmHg 54%
    10:00 +6°C° 0 mm 2 mps 628 mmHg 43%
    11:00 +7°C° 0 mm 2 mps 628 mmHg 42%
    12:00 +8°C° 0 mm 2 mps 628 mmHg 40%
    13:00 +9°C° 0 mm 2 mps 628 mmHg 39%
    14:00 +9°C° 0 mm 2 mps 628 mmHg 42%
    15:00 +8°C° 0 mm 2 mps 628 mmHg 44%
    16:00 +8°C° 0 mm 2 mps 627 mmHg 47%
    17:00 +5°C° 0 mm 2 mps 627 mmHg 60%
    18:00 +3°C° 0 mm 2 mps 626 mmHg 72%
    19:00 +1°C° 0 mm 1 mps 626 mmHg 84%
    20:00 +1°C° 0 mm 1 mps 626 mmHg 83%
    21:00 +1°C° 0 mm 1 mps 626 mmHg 82%
    22:00 +1°C° 0 mm 1 mps 626 mmHg 81%
    23:00 +1°C° 0 mm 1 mps 626 mmHg 77%

    Day after tomorrow, 26 September, Wednesday

    Time Temperature Precipitation Wind Pressure Humidity
    00:00 +1°C° 0 mm 1 mps 626 mmHg 73%
    01:00 +1°C° 0 mm 1 mps 626 mmHg 69%
    02:00 +1°C° 0 mm 1 mps 626 mmHg 68%
    03:00 +1°C° 0 mm 1 mps 626 mmHg 68%
    04:00 +1°C° 0 mm 1 mps 626 mmHg 67%
    05:00 +2°C° 0 mm 1 mps 626 mmHg 64%
    06:00 +3°C° 0 mm 1 mps 627 mmHg 61%
    07:00 +3°C° 0 mm 1 mps 627 mmHg 59%
    08:00 +7°C° 0 mm 1 mps 628 mmHg 49%
    09:00 +10°C° 0 mm 1 mps 629 mmHg 39%
    10:00 +12°C° 0 mm 0 mps 630 mmHg 29%
    11:00 +14°C° 0 mm 1 mps 631 mmHg 29%
    12:00 +15°C° 0 mm 1 mps 631 mmHg 28%
    13:00 +16°C° 0 mm 1 mps 631 mmHg 27%
    14:00 +16°C° 0 mm 1 mps 631 mmHg 31%
    15:00 +15°C° 0 mm 1 mps 630 mmHg 36%
    16:00 +15°C° 0 mm 1 mps 630 mmHg 41%
    17:00 +11°C° 0 mm 1 mps 629 mmHg 53%
    18:00 +8°C° 0 mm 1 mps 628 mmHg 65%
    19:00 +5°C° 0 mm 1 mps 626 mmHg 78%
    20:00 +5°C° 0 mm 1 mps 627 mmHg 75%
    21:00 +5°C° 0 mm 1 mps 627 mmHg 73%
    22:00 +5°C° 0 mm 1 mps 627 mmHg 70%
    23:00 +5°C° 0 mm 1 mps 627 mmHg 67%

    27 September, Thursday

    Time Temperature Precipitation Wind Pressure Humidity
    00:00 +5°C° 0 mm 1 mps 626 mmHg 63%
    01:00 +5°C° 0 mm 1 mps 626 mmHg 60%
    02:00 +5°C° 0 mm 1 mps 626 mmHg 55%
    03:00 +5°C° 0 mm 1 mps 626 mmHg 51%
    04:00 +5°C° 0 mm 1 mps 626 mmHg 46%
    05:00 +5°C° 0 mm 1 mps 626 mmHg 46%
    06:00 +6°C° 0 mm 1 mps 626 mmHg 46%
    07:00 +7°C° 0 mm 1 mps 626 mmHg 45%
    08:00 +10°C° 0 mm 1 mps 627 mmHg 39%
    09:00 +13°C° 0 mm 1 mps 628 mmHg 33%
    10:00 +18°C° 0 mm 1 mps 630 mmHg 27%
    11:00 +18°C° 0 mm 1 mps 630 mmHg 27%
    12:00 +19°C° 0 mm 1 mps 629 mmHg 28%
    13:00 +20°C° 0 mm 1 mps 629 mmHg 28%
    14:00 +19°C° 0 mm 1 mps 629 mmHg 32%
    15:00 +19°C° 0 mm 1 mps 628 mmHg 37%
    16:00 +18°C° 0 mm 1 mps 628 mmHg 41%
    17:00 +14°C° 0 mm 1 mps 626 mmHg 54%
    18:00 +10°C° 0 mm 1 mps 625 mmHg 66%
    19:00 +7°C° 0 mm 1 mps 623 mmHg 78%
    20:00 +7°C° 0 mm 1 mps 623 mmHg 77%
    21:00 +7°C° 0 mm 1 mps 623 mmHg 77%
    22:00 +6°C° 0 mm 1 mps 623 mmHg 76%
    23:00 +6°C° 0 mm 1 mps 623 mmHg 75%

    28 September, Friday

    Time Temperature Precipitation Wind Pressure Humidity
    00:00 +6°C° 0 mm 1 mps 622 mmHg 73%
    01:00 +6°C° 0 mm 1 mps 622 mmHg 72%
    02:00 +6°C° 0 mm 1 mps 622 mmHg 71%
    03:00 +6°C° 0 mm 1 mps 621 mmHg 69%
    04:00 +5°C° 0 mm 1 mps 621 mmHg 68%
    05:00 +6°C° 0 mm 1 mps 621 mmHg 65%
    06:00 +6°C° 0 mm 1 mps 621 mmHg 63%
    07:00 +6°C° 0 mm 1 mps 621 mmHg 60%
    08:00 +10°C° 0 mm 1 mps 622 mmHg 51%
    09:00 +13°C° 0 mm 1 mps 623 mmHg 43%
    10:00 +16°C° 0 mm 1 mps 624 mmHg 34%
    11:00 +18°C° 0 mm 1 mps 624 mmHg 33%
    12:00 +18°C° 0 mm 1 mps 624 mmHg 33%
    13:00 +19°C° 0 mm 1 mps 624 mmHg 33%
    14:00 +18°C° 0 mm 1 mps 623 mmHg 37%
    15:00 +17°C° 0 mm 2 mps 623 mmHg 42%
    16:00 +16°C° 0 mm 2 mps 622 mmHg 47%
    17:00 +13°C° 0 mm 1 mps 621 mmHg 60%
    18:00 +10°C° 0 mm 1 mps 620 mmHg 73%
    19:00 +7°C° 0 mm 1 mps 619 mmHg 86%
    20:00 +7°C° 0 mm 1 mps 619 mmHg 87%
    21:00 +6°C° 0 mm 1 mps 620 mmHg 89%
    22:00 +6°C° 0 mm 1 mps 620 mmHg 90%
    23:00 +6°C° 0 mm 1 mps 620 mmHg 91%

    29 September, Saturday

    Time Temperature Precipitation Wind Pressure Humidity
    00:00 +5°C° 0 mm 1 mps 620 mmHg 91%
    01:00 +5°C° 0 mm 1 mps 619 mmHg 91%
    02:00 +5°C° 0 mm 1 mps 619 mmHg 92%
    03:00 +5°C° 0 mm 1 mps 619 mmHg 93%
    04:00 +5°C° 0 mm 1 mps 619 mmHg 93%
    05:00 +5°C° 0 mm 1 mps 620 mmHg 92%
    06:00 +5°C° 0 mm 1 mps 620 mmHg 91%
    07:00 +6°C° 0 mm 1 mps 620 mmHg 90%
    08:00 +8°C° 0 mm 1 mps 621 mmHg 79%
    09:00 +11°C° 0 mm 1 mps 622 mmHg 67%
    10:00 +13°C° 0 mm 1 mps 623 mmHg 55%
    11:00 +14°C° 0 mm 1 mps 623 mmHg 52%
    12:00 +15°C° 0 mm 1 mps 623 mmHg 50%
    13:00 +16°C° 0 mm 1 mps 623 mmHg 47%
    14:00 +15°C° 0 mm 1 mps 623 mmHg 51%
    15:00 +15°C° 0 mm 1 mps 623 mmHg 54%
    16:00 +14°C° 0 mm 1 mps 622 mmHg 57%
    17:00 +12°C° 0 mm 1 mps 622 mmHg 68%
    18:00 +10°C° 0 mm 1 mps 621 mmHg 78%
    19:00 +7°C° 0 mm 1 mps 620 mmHg 89%
    20:00 +7°C° 0 mm 1 mps 620 mmHg 89%
    21:00 +6°C° 0 mm 2 mps 620 mmHg 89%
    22:00 +6°C° 0 mm 2 mps 620 mmHg 90%
    23:00 +5°C° 0 mm 2 mps 620 mmHg 90%
    Show more